AirNav   Air Wisconsin pilot careers
 
 888 users online  

U88 Garden Valley Airport
Garden Valley, Idaho, USA

GOING TO GARDEN VALLEY?


FAA INFORMATION EFFECTIVE 24 MAY 2018

Location

FAA Identifier: U88
Lat/Long: 44-04-01.0000N / 115-55-52.6000W
44-04.016667N / 115-55.876667W
44.0669444 / -115.9312778
(estimated)
Elevation: 3177 ft. / 968.3 m (surveyed)
Variation: 17E (1985)
From city: 2 miles SE of GARDEN VALLEY, ID
Time zone: UTC -6 (UTC -7 during Standard Time)
Zip code: 83622

Airport Operations

Airport use: Open to the public
Activation date: 06/1967
Control tower: no
ARTCC: SALT LAKE CITY CENTER
FSS: BOISE FLIGHT SERVICE STATION
NOTAMs facility: BOI (NOTAM-D service available)
Attendance: UNATNDD
Wind indicator: yes
Segmented circle: yes
1/2 SEGMENTED CIRCLE.

Airport Communications

CTAF: 122.9

Nearby radio navigation aids

VOR radial/distance  VOR name  Freq  Var
BOIr003/32.9BOISE VORTAC113.3017E

Airport Services

Parking: tiedowns
Airframe service: NONE
Powerplant service: NONE
Bottled oxygen: NONE
Bulk oxygen: NONE

Runway Information

Runway 10/28

Dimensions: 3850 x 125 ft. / 1173 x 38 m
Surface: turf, in good condition
Runway edge markings: 10/28 EDGES & THLDS MARKED WITH WHITE ROCKS.
Gradient: E
Operational restrictions: RCMD LANDING RWY 10; TAKE-OFF RWY 28 IF WINDS ALLOW.
RUNWAY 10  RUNWAY 28
Latitude: 44-04.155167N44-03.879167N
Longitude: 115-56.272167W115-55.481000W
Elevation: 3125.0 ft.3177.0 ft.
Gradient: 1.4% UP
Traffic pattern: leftleft
Obstructions: 4 ft. fence, 80 ft. left of centerline4 ft. fence, 63 ft. right of centerline

Airport Ownership and Management from official FAA records

Ownership: Publicly-owned
Owner: STATE OF ID, ITD, DIV AERO
P.O. BOX 7129
BOISE, ID 83707-1129
Phone 208-334-8775
Manager: DIV ADMIN.
P.O. BOX 7129
BOISE, ID 83707-1129
Phone 208-334-8775

Airport Operational Statistics

Aircraft based on the field: 5
Single engine airplanes: 5
    
Aircraft operations: avg 49/week *
78% transient general aviation
18% local general aviation
2% military
2% air taxi
* for 12-month period ending 30 August 2016

Additional Remarks

NO WINTER MAINTENANCE.
USFS HELIPORT OPNS ADJACENT TO SE END OF ARPT.
WATCH FOR SPRINKLER HEADS ON RY.
ARPT LCTD IN MTN VALLEY.
NUMEROUS ADDITIONAL OBSTNS ON APCH ENDS OF BOTH RWYS.
NO TELEPHONE AVBL AT ARPT.

Instrument Procedures

There are no published instrument procedures at U88.

Some nearby airports with instrument procedures:

KBOI - Boise Air Terminal/Gowen Field (33 nm SW)
KMAN - Nampa Municipal Airport (39 nm SW)
KEUL - Caldwell Industrial Airport (40 nm SW)
S87 - Weiser Municipal Airport (45 nm W)
KONO - Ontario Municipal Airport (47 nm W)
 
Loc | Ops | Rwys | IFR | FBO | Links
Com | Nav | Svcs | Stats | Notes

AirNav Hotels Sweepstakes
 
Area around U88 (Garden Valley Airport)
 
Road maps at: MapQuest Bing Google
 
Aerial photo
WARNING: Photo may not be current or correct
Aerial photo of U88 (Garden Valley Airport)
Photo by C. Wayne Wright, NASA
Photo taken 06-Oct-2007

Do you have a better or more recent aerial photo of Garden Valley Airport that you would like to share? If so, please send us your photo.

 
Sectional chart

 
Airport distance calculator
Flying to Garden Valley Airport? Find the distance to fly.

From to U88

Sunrise and sunset
Times for 17-Jun-2018
 Local
(UTC-6)
 Zulu
(UTC)
Morning civil twilight05:2511:25
Sunrise06:0112:01
Sunset21:2803:28
Evening civil twilight22:0504:05

Current date and time
Zulu (UTC)  18-Jun-2018 02:09:41
Local (UTC-6)  17-Jun-2018 20:09:41
 
METAR
KBOI 
33nm SW 
180153Z 31007KT 10SM OVC036 14/11 A2985 RMK AO2 SLP097 T01390111
KMAN 
39nm SW 
180155Z AUTO 32004KT 10SM OVC048 16/13 A2984 RMK A01
KEUL 
40nm SW 
180156Z AUTO 27003KT 10SM OVC050 16/12 A2984 RMK AO2 SLP098 T01560122
KSNT 
43nm E 
180151Z AUTO 14006KT 09/08 A2996 RMK AO1 SLP084 P0028 T00890078 $
KONO 
47nm W 
180153Z AUTO 25009KT 10SM OVC060 16/12 A2983 RMK AO2 SLP096 T01610122
KMYL 
50nm N 
180151Z AUTO VRB03KT 10SM SCT060 OVC095 14/08 A2984 RMK AO2 SLP084 T01390078 $
TAF
KBOI 
33nm SW 
172346Z 1800/1824 33011KT P6SM VCSH SCT009 BKN015 OVC028 TEMPO 1802/1806 P6SM -SHRA OVC010 FM180600 14007KT P6SM VCSH SCT010 OVC025
KEUL 
40nm SW 
172346Z 1800/1824 27009KT P6SM VCSH SCT010 OVC025 TEMPO 1802/1806 P6SM -SHRA OVC012 FM180600 13005KT P6SM VCSH SCT030 BKN050
NOTAMs
Click for the latest NOTAMs
NOTAMs are issued by the DoD/FAA and will open in a separate window not controlled by AirNav.

 

 
 

Would you like to see your business listed on this page?

 If your business provides an interesting product or service to pilots, flight crews, aircraft, or users of the Garden Valley Airport, you should consider listing it here.  To start the listing process, click on the button below
 
Add a business
 

Other Pages about Garden Valley Airport

www.flyidaho.org/...
 
Update a link
 
Copyright © AirNav, LLC. All rights reserved. Privacy Policy  Contact